STARLINK-4111, 53159

Orbit data source: Space-Track

STARLINK-4111, 53159 is a payload satellite owned by SpaceX/Seattle (US) in LEO that was launched on Sun, 17 Jul 2022 UTC via an FALCON 9 launch vehicle from the Air Force Eastern Test Range (AFETR). Payload-class satellites include a variety of spacecraft equipped with specific instruments for various scientific and technological missions. These include communications satellites like Starlink; space stations such as the ISS; scientific satellites like the Hubble; Earth observation satellites from companies like Planet Labs, Umbra, and HawkEye 360; GPS; miniature CubeSats for education and research; and military/defense satellites.

Loading next visibility...
Identifier
53159, 2022-083AD
Orbit
LEO
Country
Flag of USUS
Related business
Manufacturer
SpaceX/Seattle
Mission
Operational Commercial Communications
Bus & Motor
STARLINK, Unknown motor
Mass
297 kg wet, ~275 kg dry
Launch date (UTC)
2022-07-17 (4 years ago)
Launch vehicle
FALCON 9
Launch site
Air Force Eastern Test Range (AFETR)
Object type
Payload
Rocket body
Debris
Shape & HBR
Box + 1 Pan, 10.1 m
Radar Cross Section
13.562 m², Large (>1 m²)

Expand to show TLE details & history
Last TLE update: 3 days ago

TLE from 3 days ago
0 STARLINK-4111
1 53159U 22083AD  26170.91713796 -.00000036  00000-0  15806-4 0  9991
2 53159  53.1617  65.0929 0001403  79.0800 281.0350 15.08846358216793
Epoch: 2026-06-19T22:00Z
TLE epoch observation values (Epoch: 2026-06-19T22:00:40.719Z)
Latitude
0.00003°
Longitude
-173.21598°
Altitude
540.43 km
Speed
7.593 km/s
True Right ascension
04h 20m 22s
True Declination
0° 00' 00"
Sunlit
Object was in daylight at epoch
Visualization orbit readout
Latitude
Unknown
Longitude
Unknown
Altitude
Unknown
Speed
Unknown
Apparent Right ascension
Unknown
Apparent Declination
Unknown
Sunlit
N/A
Visualization observer readout
Local Sidereal Time
21:27:57
Azimuth
Unknown
Elevation
Unknown
Doppler factor
Unknown
Orbital elements
Apogee altitude
540.948 km
Perigee altitude
539.007 km
Semi-major axis
6,918.115 km
Eccentricity
0.00014
Inclination
53.1617°
RAAN
65.0929°
Arg. of periapsis
79.08°
True anomaly
281.01922°
Mean anomaly
281.035°
Eccentric anomaly
281.02711°
Mean motion
3.77191 °/min
Orbital period
95.44 mins
BSTAR
0.000015806
Loading maneuver chart data...
Computing Atmospheric mass density...
Loading historical data...
Loading historical data...
Loading historical data...
Loading historical data...
Loading historical data...
Loading historical data...
Loading historical data...

Documentation

Showing up to 5 results
|